Location: Beugnon
(47.6222°N, 3.7850°E)
Time: 00:24:10
(UTC+00:00)

SPOT 3 Rocket - Pass Details

Date: 09 April 2020
Orbit: 779 x 795 km, 98.8° (Epoch: 30 May)

Event Time Altitude Azimuth Distance (km) Brightness Sun altitude
Exits shadow 19:22:46 - 151° (SSE) 2,764 5.9 -9.8°
Reaches altitude 10° 19:23:48 10° 150° (SSE) 2,355 5.5 -10.0°
Maximum altitude 19:28:55 62° 71° (ENE) 893 3.6 -10.8°
Drops below altitude 10° 19:34:03 10° 352° (N) 2,363 6.5 -11.5°
Sets 19:36:24 0° 349° (NNW) 3,294 7.4 -11.9°
